Regional Weather Roundup
Issued by NWS

Home | Current Version | Previous Version | Graphics & Text | Print | Product List | Glossary On
Versions: 1 2 3 4 5 6 7 8 9 10 11 12 13 14 15 16 17 18 19 20 21 22 23 24 25 26 27 28 29 30 31 32 33 34 35 36 37 38 39 40 41 42 43 44 45 46 47 48 49 50
000
ASUS45 KCYS 031410
RWRWY

WYOMING REGIONAL WEATHER ROUNDUP
NATIONAL WEATHER SERVICE CHEYENNE WY
800 AM MDT FRI JUL 03 2015

NOTE:  "FAIR" INDICATES FEW OR NO CLOUDS BELOW 12,000 FEET
WITH NO SIGNIFICANT WEATHER AND/OR OBSTRUCTIONS TO VISIBILITY.

WYZ001-031500-
YELLOWSTONE NATIONAL PARK

CITY           SKY/WX    TMP DP  RH WIND       PRES   REMARKS
LK YELLOWSTONE   N/A     57  48  72 CALM      30.32S
W YELLOWSTONE  NOT AVBL

$$
WYZ002>013-054>058-071-098>099-031500-
NORTHERN WYOMING

CITY           SKY/WX    TMP DP  RH WIND       PRES   REMARKS
JACKSON        SUNNY     55  45  67 CALM      30.24S
CODY           FAIR      68  50  52 CALM      30.12F
GREYBULL       FAIR      69  51  52 CALM      30.07S
WORLAND        FAIR      72  54  53 S6        30.08S
SHERIDAN       FAIR      63  55  75 CALM      30.08S
BUFFALO        FAIR      67  53  61 CALM      30.13R
GILLETTE       FAIR      68  55  63 S12       30.10F
HULETT         PTSUNNY   64  57  77 SW3       30.13S
NEWCASTLE      FAIR      68  54  60 MISG      30.14F

$$
WYZ014>020-022>026-101>103-031500-
CENTRAL WYOMING

CITY           SKY/WX    TMP DP  RH WIND       PRES   REMARKS
BIG PINEY      FAIR      59  45  59 CALM      30.29S
PINEDALE       FAIR      57  46  67 MISG      30.30F
DUBOIS         FAIR      59  48  67 NW7       30.28F
LANDER         FAIR      63  55  75 CALM      30.18F
RIVERTON       FAIR      64  55  72 SW6       30.18F
CASPER         FAIR      65  54  67 N5        30.17S
DOUGLAS        FAIR      64  56  75 SE6       30.17S

$$
WYZ021-027>030-104>119-031500-
SOUTHERN WYOMING

CITY           SKY/WX    TMP DP  RH WIND       PRES   REMARKS
EVANSTON       FAIR      64  47  53 E6        30.27S
KEMMERER       FAIR      63  46  55 N9        30.30S
FORT BRIDGER   SUNNY     63  48  59 CALM      30.30S
ROCK SPRINGS   FAIR      62  51  67 E7        30.25F
DIXON          FAIR      62  46  55 SE8       30.25S
RAWLINS        FAIR      59  54  83 SE5       30.27S
SARATOGA       FAIR      55  50  82 CALM      30.29S
LARAMIE        FAIR      59  50  72 S8        30.28F
CHEYENNE       FAIR      62  55  77 SE5       30.24F
TORRINGTON     FAIR      65  60  84 CALM      30.14S
PINE BLUFFS    FAIR      66  52  59 CALM      30.19F

$$


USA.gov is the U.S. government's official web portal to all federal, state and local government web resources and services.